COSMOS 2251 DEB, 36379

Orbit data source: Space-Track

COSMOS 2251 DEB, 36379 is space debris in LEO originally from a launch on Wed, 16 Jun 1993 UTC launched from the Plesetsk Missile And Space Complex (PKMTR). The debris from Iridium 33, an American commercial communications satellite, has been tracked extensively since its accidental collision with the defunct Russian satellite Cosmos 2251 in 2009. This event, occurring at high speed in low Earth orbit (LEO), generated thousands of pieces of space debris, significantly increasing the risk of further collisions. The Iridium 33 debris cloud has impacted space traffic management and orbital debris mitigation strategies, making it a subject of ongoing study in space situational awareness.

Loading next visibility...
Identifier
36379, 1993-036AZG
Orbit
LEO
Country
Flag of CISCIS
Related business
Manufacturer
Unknown
Mission
Spacecraft
Bus & Motor
Unknown
Mass
Unknown
Launch date (UTC)
1993-06-16 (33 years ago)
Launch vehicle
Unknown
Launch site
Plesetsk Missile And Space Complex (PKMTR)
Object type
Payload
Rocket body
Debris
Shape & HBR
Unknown shape, 0.1 m
Radar Cross Section
Small (<0.1 m²)

Expand to show TLE details & history
Last TLE update: 2 days ago

TLE from 2 days ago
0 COSMOS 2251 DEB
1 36379U 93036AZG 26122.53930742  .00000671  00000-0  23560-3 0  9998
2 36379  74.0134  47.8734 0046004 145.1908  31.8651 14.36318280668497
Epoch: 2026-05-02T12:56Z
TLE epoch observation values (Epoch: 2026-05-02T12:56:36.161Z)
Latitude
2.46558°
Longitude
172.56393°
Altitude
745.119 km
Speed
7.497 km/s
True Right ascension
15h 08m 40s
True Declination
2° 27' 03"
Sunlit
Object was in full shadow at epoch
Visualization orbit readout
Latitude
Unknown
Longitude
Unknown
Altitude
Unknown
Speed
Unknown
Apparent Right ascension
Unknown
Apparent Declination
Unknown
Sunlit
N/A
Visualization observer readout
Local Sidereal Time
17:40:37
Azimuth
Unknown
Elevation
Unknown
Doppler factor
Unknown
Orbital elements
Apogee altitude
801.191 km
Perigee altitude
735.438 km
Semi-major axis
7,146.451 km
Eccentricity
0.0046
Inclination
74.0134°
RAAN
47.8734°
Arg. of periapsis
145.1908°
True anomaly
32.14477°
Mean anomaly
31.8651°
Eccentric anomaly
32.0048°
Mean motion
3.59259 °/min
Orbital period
100.21 mins
BSTAR
0.0002356
Loading maneuver chart data...
Computing Atmospheric mass density...

Documentation

Showing up to 5 results
|